Volver al catálogo

TITAN 3C TRANSTAGE R/B

ActivoMEO
NORAD 4632·ROCKET BODY·🇺🇸 United States

Lanzado Nov 6, 1970 desde Cape Canaveral Space Force Station

Loading…

Próximos Pases (próximas 24 horas)

TLE

ActualizadoSource: Space-Track

Época: Sep 14, 2026, 10:31 UTC

1 04632U 70093B   26257.43869691 -.00000163  00000-0  00000-0 0  9993
2 04632  15.2562  34.2226 1367876 281.5911  79.7022  1.20232082143489

Sigue TITAN 3C TRANSTAGE R/B en tiempo real con AllMySat

Download on the App Store